Regional Weather Roundup
Issued by NWS

Home | Current Version | Previous Version | Graphics & Text | Print | Product List | Glossary On
Versions: 1 2 3 4 5 6 7 8 9 10 11 12 13 14 15 16 17 18 19 20 21 22 23 24 25 26 27 28 29 30 31 32 33 34 35 36 37 38 39 40 41 42 43 44 45 46 47 48 49 50
000
ASUS43 KOAX 300302
RWRNE

WEATHER ROUNDUP FOR NEBRASKA
NATIONAL WEATHER SERVICE OMAHA NE
1000 PM CDT WED MAR 29 2017

NOTES: SATELLITE DATA IS BEING USED TO AUGMENT CLOUD COVER ABOVE
       12000 FEET.
       "FAIR" INDICATES FEW OR NO CLOUDS BELOW 12,000 FEET WITH NO
       SIGNIFICANT WEATHER AND/OR OBSTRUCTIONS TO VISIBILITY.

  * THESE STATIONS DO NOT REPORT WEATHER SUCH AS RAIN...SNOW OR FOG.

NEZ001>004-019>022-054>056-300400-
NEBRASKA PANHANDLE

CITY           SKY/WX    TMP DP  RH WIND       PRES   REMARKS
SCOTTSBLUFF    CLEAR     42  36  79 E7        29.95S
ALLIANCE       CLEAR     37  34  89 E10       29.94F WCI  30
CHADRON        CLEAR     44  38  79 SE8       29.94S
KIMBALL        CLEAR     39  38  97 SE5       29.97R
SIDNEY         CLEAR     35  32  88 SE3       29.96F
$$

NEZ057>060-069>072-079>082-300400-
SOUTHWEST NEBRASKA

CITY           SKY/WX    TMP DP  RH WIND       PRES   REMARKS
NORTH PLATTE   CLOUDY    39  35  86 N6        29.94S WCI  35
IMPERIAL       CLEAR     38  35  89 N6        29.94F WCI  33
LEXINGTON      CLOUDY    40  38  91 N16       29.90F WCI  32
MCCOOK         CLOUDY    41  39  93 N13       29.90F
OGALLALA       CLEAR     40  35  85 N5        29.95S
$$

NEZ005>010-023>029-035>040-094-300400-
NORTH CENTRAL NEBRASKA

CITY           SKY/WX    TMP DP  RH WIND       PRES   REMARKS
VALENTINE      CLOUDY    42  35  76 NE7       29.98F
AINSWORTH      CLOUDY    41  37  85 NE15      29.97F
BROKEN BOW     CLOUDY    40  37  89 N16G24    29.92S WCI  31
O`NEILL        CLOUDY    38  38  98 NE13      29.97S FOG     WCI  30
ORD            CLOUDY    39  35  86 N13       29.91F WCI  31
THEDFORD       MOCLDY    40  38  92 NE9       29.96F WCI  35
$$

NEZ041-046>049-061>064-073>077-083>087-300400-
SOUTH CENTRAL NEBRASKA

CITY           SKY/WX    TMP DP  RH WIND       PRES   REMARKS
GRAND ISLAND   LGT RAIN  39  39 100 N16G28    29.85F WCI  30
AURORA         CLOUDY    39  39 100 N18G26    29.83F WCI  30
HASTINGS       CLOUDY    40  38  93 N23G32    29.83F WCI  30
HEBRON         RAIN      41  39  93 N17       29.75S
HOLDREGE       LGT RAIN  37  36  93 N20       29.86F WCI  27
KEARNEY *      CLOUDY    37  32  81 N22       29.87F WCI  27
YORK           CLOUDY    39  39 100 NE22      29.81F WCI  29
$$

NEZ011>018-030>034-042>045-300400-
NORTHEAST NEBRASKA

CITY           SKY/WX    TMP DP  RH WIND       PRES   REMARKS
NORFOLK        CLOUDY    39  36  89 NE15      29.89F WCI  31
ALBION         RAIN      39  37  89 N10       29.90F WCI  33
BLAIR          CLOUDY    42  40  93 NE21G29   29.80R
FREMONT        CLOUDY    42  40  93 NE12G21   29.84S
TEKAMAH        CLOUDY    42  38  85 NE20G31   29.83F
WAYNE          CLOUDY    40  39  97 NE18G25   29.90F WCI  31
$$

NEZ050>053-065>068-078-088>093-300400-
SOUTHEAST NEBRASKA

CITY           SKY/WX    TMP DP  RH WIND       PRES   REMARKS
LINCOLN        LGT RAIN  42  40  92 NE17      29.80R
OMAHA EPPLEY   CLOUDY    43  38  82 NE23G36   29.81F
BEATRICE       CLOUDY    42  42  99 NE20G26   29.71F FOG
FALLS CITY     CLOUDY    49  48  97 NE7       29.70R
NEBRASKA CITY  RAIN      43  43 100 NE17G23   29.77R
PLATTSMOUTH    CLOUDY    42  39  89 NE18      29.77S
$$

NEZ044-045-051>053-067-300400-
OMAHA AREA

CITY           SKY/WX    TMP DP  RH WIND       PRES   REMARKS
OMAHA EPPLEY   CLOUDY    43  38  82 NE23G36   29.81F
BLAIR          CLOUDY    42  40  93 NE21G29   29.80R
FREMONT        CLOUDY    42  40  93 NE12G21   29.84S
MILLARD        CLOUDY    45  41  88 NE7G20    29.81R
OFFUTT AFB     CLOUDY    43  40  88 NE17G25   29.78S
PLATTSMOUTH    CLOUDY    42  39  89 NE18      29.77S
WAHOO          CLOUDY    42  39  91 NE22G29   29.80S
$$




USA.gov is the U.S. government's official web portal to all federal, state and local government web resources and services.